Overview Statistics Trail Chart Weather Telemetry Raw packets
 

This is the latest recevied weather packets stored in our database for station/object IZ4MEH-10. If no packets are shown the sender has not sent any weather packets the latest 10 day(s).

<< 1 2 3 4 5 >>
Time Temp. Humidity Pressure Rain* Wind** Luminosity Snow
1788535458 37.22° C 28% 1013.4 hPa - - - -
1788533657 38.33° C 27% 1013.5 hPa - - - -
1788531857 37.78° C 28% 1013.7 hPa - - - -
1788530056 37.22° C 29% 1014 hPa - - - -
1788528247 37.78° C 28% 1014.3 hPa - - - -
1788522853 36.67° C 31% 1015.2 hPa - - - -
1788521051 37.78° C 32% 1015.6 hPa - - - -
1788519243 40.56° C 28% 1015.7 hPa - - - -
1788517442 47.22° C 22% 1016.2 hPa - - - -
1788513840 47.22° C 23% 1016.8 hPa - - - -
1788510246 44.44° C 26% 1017 hPa - - - -
1788508446 42.22° C 29% 1017 hPa - - - -
1788504844 40° C 31% 1016.9 hPa - - - -
1788501242 33.33° C 44% 1016.8 hPa - - - -
1788495840 24.44° C 65% 1016.3 hPa - - - -
1788494039 24.44° C 65% 1016.3 hPa - - - -
1788490437 26.11° C 59% 1015.9 hPa - - - -
1788476030 28.33° C 53% 1016 hPa - - - -
1788474230 27.78° C 53% 1015.9 hPa - - - -
1788468827 29.44° C 48% 1015.5 hPa - - - -
1788465225 30° C 47% 1015.4 hPa - - - -
1788458014 32.22° C 38% 1014.4 hPa - - - -
1788454412 33.89° C 33% 1014 hPa - - - -
1788452611 34.44° C 32% 1014 hPa - - - -
1788445408 35.56° C 32% 1014.6 hPa - - - -

* Rain since midnight (hover to see other rain measurements)
** Current wind speed in m/s (hover to see current wind gust speed)